STARLINK-3998 (52610 NORAD) Tracking and Keplerian Element Data

This shows tracking and keplerian element data for the satellite.

Feedback or suggestion? Click here.




ElementValue
Catalog52610
NameSTARLINK-3998
Epoch Orbit130
Epoch Day192.91667824
Epoch Year2022
RAAN165.1272
Inclination53.213
Eccentricity0.0002055
Argument of Perigee57.5011
Mean Anonmoly56.4511
Mean Motion15.08862178
Decay Rate-0.00024234
L11 52610U 22052N 22192.91667824 -.00024234 00000+0 -15087-2 0 9993
L22 52610 53.2130 165.1272 0002055 57.5011 56.4511 15.08862178 1307

Live tracking and technical data element details for STARLINK-3998 (NORAD 52610). STARLINK-3998 can be tracked NOW for your location showing map with azimuth and elevation plus other details from your city location.

Track the satellite on the map from your city or location and see movement details for azimuth, elevation, latitude, longitude, range, height, and movement on the map or in text.







IsCatalogInMostPopularTable: catalog: 52610, numindb: 8
Update: records affected: 1



GetName: 52610 STARLINK-3998

Hit Count: updated at: Sun, 14 Aug 2022 01:17:16 GMT